Theta_e
319 319 318 318 319 318 318 318 318 318 317 317 316 316 316 316 316 316 316 318 318 318 318 319 320 322 321 316 316 331 353 354 336 328 323 323 322 322 316 319 321 318 321 326 327 326 324
319 319 319 318 319 318 317 318 318 317 317 317 316 316 316 316 317 317 317 317 317 318 317 319 322 321 317 307 323 332 330 330 327 325 324 325 323 323 319 318 319 321 322 326 326 326 326
317 317 317 317 318 318 317 317 317 317 317 316 316 316 316 316 316 316 316 316 316 317 318 320 325 322 313 313 325 328 328 329 328 325 323 326 325 320 320 317 323 323 319 324 325 327 324
316 316 316 316 316 316 315 315 315 315 316 316 316 315 315 315 315 315 315 315 316 317 319 324 325 322 310 323 325 324 325 327 329 328 325 328 325 321 318 321 320 319 320 316 324 326 328
316 315 315 315 315 315 314 314 314 314 315 316 315 315 315 314 314 314 314 314 316 319 322 326 322 319 312 328 321 323 324 325 326 327 326 326 321 316 317 313 313 316 312 316 318 326 327
315 315 315 315 315 315 315 314 314 314 315 315 314 314 314 313 313 313 312 314 321 319 324 326 324 318 323 316 321 321 324 325 323 323 321 318 315 311 312 312 305 311 312 316 317 322 326
314 315 315 314 314 314 315 315 314 314 315 315 314 313 313 313 313 312 311 317 317 317 317 316 315 313 316 323 324 319 322 321 322 319 312 315 308 306 311 314 315 315 316 315 319 322 321
313 314 314 314 314 314 314 314 314 314 314 314 314 313 313 312 311 311 313 315 312 312 305 315 319 319 322 322 317 319 322 316 315 309 312 309 305 312 316 316 314 314 313 316 319 322 321
314 314 314 314 315 315 315 314 314 314 313 313 313 313 312 311 310 313 313 314 317 316 305 310 313 315 319 320 316 316 319 317 313 310 309 307 309 314 315 315 314 313 313 315 315 320 322
314 314 315 314 315 314 314 314 314 313 313 312 312 312 311 310 309 311 312 317 317 315 301 307 310 313 315 318 313 321 321 318 314 310 310 309 313 312 312 313 315 311 317 317 316 315 311
314 314 314 314 314 314 314 313 313 313 312 312 312 312 310 309 307 309 313 316 316 313 295 313 313 321 316 312 314 315 322 318 311 311 311 308 309 310 310 312 316 313 317 316 316 315 315
314 314 314 314 314 314 313 313 313 313 312 312 311 311 310 309 311 314 315 315 312 300 296 309 313 311 310 310 312 316 316 320 318 313 314 311 315 313 313 315 316 318 315 316 315 313 306
313 313 314 313 313 313 313 312 312 312 312 311 310 309 308 310 305 313 314 309 298 296 312 309 308 311 309 307 308 310 310 311 308 305 306 311 311 313 314 311 316 315 312 305 305 305 303
312 313 313 312 312 312 312 312 312 312 312 311 309 308 311 313 315 315 310 302 294 304 305 314 312 311 307 309 308 308 309 307 312 311 308 305 302 309 313 311 311 312 311 306 302 302 304
312 312 312 312 312 312 312 312 311 311 311 310 308 309 308 311 315 313 304 294 298 304 311 310 311 308 307 310 309 307 307 307 311 312 307 305 304 312 312 313 313 311 308 314 308 311 307
311 311 312 312 312 311 311 311 311 311 310 309 304 306 309 313 314 310 299 294 301 307 311 308 305 310 306 308 307 306 307 311 310 313 315 311 304 310 311 313 313 312 316 308 310 302 302
311 311 312 312 312 311 311 311 311 311 310 308 305 302 309 314 313 303 294 296 300 305 306 304 304 306 308 309 309 308 307 312 313 313 315 313 310 309 311 308 307 308 308 312 312 310 304
311 311 311 311 311 311 311 311 311 310 308 306 302 295 311 313 299 300 296 299 301 302 306 306 307 306 305 307 307 309 308 311 316 315 310 314 310 306 307 312 313 311 309 311 308 308 310
310 311 311 311 311 311 311 311 310 309 309 304 298 300 309 308 293 295 299 299 301 301 302 303 303 305 307 305 304 309 312 316 316 314 312 314 309 304 305 309 311 308 310 312 313 313 310
309 310 311 311 311 311 311 310 310 309 309 305 298 295 302 303 301 296 295 297 298 303 302 305 304 305 304 303 306 305 309 314 316 315 325 317 310 309 303 306 310 307 308 310 310 307 308
309 310 310 310 310 310 310 310 310 310 310 305 299 296 299 293 296 299 300 297 297 299 303 304 303 302 302 300 302 304 308 312 314 320 315 314 310 312 310 310 310 309 308 308 308 310 306
309 309 310 310 311 311 311 310 310 309 309 302 294 295 299 298 298 296 297 296 295 298 300 300 300 302 304 301 303 303 306 309 310 314 312 314 310 311 309 311 310 308 310 309 309 309 310
309 309 310 310 310 310 310 310 310 309 307 301 307 306 300 296 296 294 295 296 296 298 300 303 302 302 303 305 306 306 307 308 309 308 310 311 310 311 305 310 309 304 309 310 311 312 310
309 309 309 310 310 310 310 309 310 309 307 303 303 304 296 291 293 293 295 297 296 297 296 299 301 300 305 309 307 308 308 308 308 310 312 312 314 311 305 309 299 310 315 313 312 314 316
309 309 309 309 309 309 310 309 309 309 309 305 305 304 298 290 294 294 294 295 297 298 297 297 299 302 305 302 299 300 300 303 305 309 311 312 311 305 304 304 308 310 314 312 312 313 318
309 309 309 309 310 310 310 309 309 309 308 307 304 313 301 294 292 296 295 295 294 294 296 298 304 305 302 298 297 294 294 299 300 303 310 311 317 310 306 302 300 312 317 318 317 309 322
310 310 310 310 310 309 310 309 309 308 308 307 304 310 304 294 297 297 294 293 297 297 294 298 299 301 302 296 293 293 295 302 298 299 302 304 308 304 305 304 307 316 318 320 308 312 320
310 310 310 309 309 309 309 308 309 308 308 307 304 307 305 296 297 300 299 296 296 297 293 296 297 298 298 293 293 294 295 298 300 305 305 303 303 302 306 303 301 318 317 312 325 331 325
310 310 310 310 309 309 309 308 308 307 307 306 301 306 313 301 298 303 304 304 303 301 298 298 296 297 298 297 297 298 297 299 302 296 309 303 308 305 307 306 323 319 322 325 326 327 331
Wind_Speed
16 17 17 18 17 17 18 19 19 20 21 22 23 23 25 25 25 25 25 24 24 23 22 20 18 15 10 10 20 7 10 10 12 15 19 19 17 16 19 19 3 11 12 14 12 14 12
19 18 18 18 17 17 18 19 19 20 21 22 23 23 23 24 25 25 24 24 24 23 22 20 15 8 7 18 17 18 13 10 11 16 19 20 16 17 19 19 9 4 7 14 16 12 11
18 18 18 18 19 19 20 20 21 21 21 22 22 23 24 25 26 27 27 26 25 24 21 17 10 7 12 21 11 7 10 15 14 18 20 20 18 18 14 14 11 10 14 11 17 13 7
18 18 18 18 18 19 20 21 22 23 22 22 23 24 25 26 27 27 28 28 26 25 19 14 7 9 11 17 23 20 11 15 14 16 19 17 17 18 19 18 10 16 15 15 17 13 12
18 18 18 18 18 18 19 21 21 22 22 22 23 25 26 27 28 29 28 30 27 21 12 7 8 10 17 4 19 16 15 16 16 17 17 16 16 17 17 16 15 17 13 16 2 13 17
19 18 19 19 20 19 19 20 21 21 21 22 24 25 27 29 29 30 31 32 13 8 8 10 12 10 20 17 15 17 17 17 16 14 15 16 13 16 16 16 15 18 15 16 16 14 21
19 19 19 19 20 20 19 20 21 21 21 22 23 26 28 30 31 30 21 8 6 8 12 14 13 15 18 17 16 16 19 19 15 18 19 20 15 18 22 23 24 20 25 26 14 10 15
19 19 19 19 19 19 19 20 21 21 22 22 24 26 28 32 33 34 13 10 9 9 13 19 27 25 25 12 10 15 22 20 17 19 20 16 23 23 24 24 24 22 17 26 18 27 14
17 18 19 18 18 18 19 20 21 21 22 23 24 26 28 31 36 17 12 7 10 12 10 17 26 26 26 19 17 19 23 23 20 22 24 24 22 23 24 25 23 23 20 16 18 16 16
17 17 18 18 18 19 20 20 21 22 22 23 24 26 27 32 13 16 7 11 12 11 8 12 16 25 28 24 21 19 23 22 18 23 23 22 23 25 25 25 23 22 20 12 13 12 12
17 18 18 18 19 20 20 21 21 22 22 23 24 25 24 19 15 10 16 14 13 10 8 7 17 12 20 30 9 26 25 23 26 19 22 23 23 25 24 27 24 21 20 13 18 13 14
18 18 18 18 19 19 20 22 22 23 24 24 25 25 24 15 8 16 17 14 11 7 11 8 11 14 24 25 31 20 23 23 20 24 21 24 22 25 24 26 25 23 19 19 18 14 12
18 19 18 18 19 19 20 21 22 24 25 27 28 28 24 12 9 15 13 10 8 12 10 13 21 17 24 25 28 26 27 27 24 23 22 22 24 24 23 24 27 25 20 13 15 14 13
19 18 18 18 19 19 20 21 22 23 25 28 29 34 13 12 15 16 9 10 15 11 27 5 17 18 23 23 26 28 26 25 28 25 18 20 20 27 20 30 22 23 22 14 17 11 14
19 18 18 18 19 18 19 21 22 22 24 27 32 12 13 14 17 8 9 15 9 18 12 18 13 16 20 20 18 26 29 26 27 29 23 19 23 21 27 23 23 22 24 23 24 16 12
18 19 18 18 18 19 20 20 21 21 23 26 14 16 16 18 9 9 12 23 20 24 17 22 20 17 18 23 26 26 26 26 29 29 28 22 15 22 25 19 23 26 17 23 16 20 18
18 18 18 18 18 18 18 19 21 21 22 30 9 10 12 9 5 10 16 21 25 32 28 14 20 19 18 18 23 19 27 21 27 27 28 27 21 17 24 24 24 18 23 23 20 17 16
18 18 18 18 18 18 18 18 18 19 20 16 9 9 4 5 10 9 16 24 24 30 25 23 19 20 19 21 20 20 25 26 24 27 30 26 18 18 19 25 25 24 26 26 14 17 15
19 17 17 18 17 18 17 17 18 17 15 10 10 14 16 12 12 13 19 25 26 27 26 24 23 19 20 21 19 16 19 22 21 23 26 22 21 17 21 17 26 25 23 25 21 17 18
19 18 17 16 16 17 17 17 17 16 14 8 7 9 6 13 12 20 21 18 21 26 26 18 16 18 20 21 20 16 20 15 13 19 7 19 22 20 17 19 17 24 24 24 24 17 15
18 18 18 18 18 18 17 17 17 15 15 9 8 10 13 11 11 17 15 19 14 17 4 10 15 19 19 20 20 21 20 21 10 3 5 8 19 21 26 27 25 23 24 26 26 22 21
20 20 19 19 20 19 18 17 15 14 14 9 9 7 10 17 13 15 12 9 12 16 15 13 14 17 14 20 20 17 18 19 14 6 14 14 14 17 23 25 28 27 23 27 27 26 24
19 20 21 20 20 20 20 18 15 12 8 8 5 9 7 13 15 13 11 16 15 15 16 10 13 15 13 18 20 20 18 18 17 16 17 19 13 15 19 21 23 24 26 23 24 24 23
20 20 21 21 21 21 20 18 17 13 8 9 8 5 5 11 11 13 16 18 18 17 8 18 17 11 16 21 23 20 18 19 17 16 16 16 16 13 14 15 26 15 22 25 23 19 21
20 21 22 23 23 23 23 21 18 16 11 9 7 3 4 9 13 18 10 11 16 10 12 15 14 14 17 17 14 12 12 17 19 18 15 16 10 13 14 18 12 23 16 21 23 22 18
20 21 22 23 23 23 21 20 14 11 11 9 10 4 3 6 10 16 17 8 11 14 13 16 17 11 14 9 9 14 13 15 14 10 17 17 11 11 14 21 28 12 20 6 6 15 15
20 20 22 22 23 20 19 14 13 11 9 8 9 3 3 6 14 15 12 7 9 11 9 9 14 13 12 8 11 15 16 18 18 22 15 14 12 14 13 15 15 11 19 16 16 6 6
19 19 20 20 20 20 14 14 15 13 10 7 7 7 6 7 15 19 15 17 7 10 11 11 10 2 12 13 13 14 15 17 18 20 20 18 12 13 12 15 17 12 15 12 9 9 6
19 18 17 17 16 18 16 14 14 12 10 6 7 7 6 4 10 19 18 21 20 17 12 11 8 13 6 8 8 8 11 13 17 17 19 19 15 13 12 11 6 10 9 10 11 4 7
Wind_Direction
12 11 9 7 5 3 0 358 357 355 352 350 347 343 340 336 333 330 327 322 318 316 314 313 312 316 298 239 250 146 147 157 180 215 219 228 232 242 261 274 107 273 110 111 103 94 91
11 8 6 3 359 359 358 356 353 351 349 346 342 339 335 332 329 326 322 319 314 311 309 308 306 306 247 259 258 156 188 177 192 204 221 231 232 240 269 292 278 220 141 131 128 121 163
10 7 5 3 1 2 357 352 350 347 344 342 339 336 332 329 326 322 319 316 311 305 302 298 290 247 259 244 273 219 212 193 218 203 222 227 237 250 247 270 257 260 202 157 131 152 145
10 8 5 4 4 1 358 355 351 347 343 339 337 333 330 326 323 320 316 313 306 300 294 282 242 224 257 253 235 245 237 215 205 210 225 234 238 254 270 283 281 239 206 187 149 175 134
4 2 1 359 358 358 356 353 350 347 342 338 335 332 328 324 321 318 316 309 299 289 266 254 207 227 258 233 228 229 212 223 194 214 210 237 239 240 248 255 254 226 226 132 113 187 114
359 359 357 355 354 352 351 349 347 344 341 337 334 330 327 322 321 319 319 298 281 300 223 211 260 261 244 227 203 214 203 226 199 203 206 218 230 229 231 236 231 213 208 137 175 198 136
358 356 354 353 351 349 346 344 342 341 338 335 333 330 327 322 320 318 328 319 204 188 237 229 201 219 279 205 219 191 202 211 200 204 204 201 216 214 223 229 241 249 137 186 252 211 185
355 352 350 349 347 345 343 341 339 337 336 334 332 329 326 322 318 315 293 273 41 323 289 254 250 254 258 205 193 203 186 203 199 205 204 189 221 220 222 221 239 250 249 180 184 228 210
347 348 344 343 342 341 340 338 337 336 334 333 330 328 326 323 316 294 310 323 321 317 270 260 230 229 228 242 209 200 187 202 199 210 204 218 213 221 226 235 229 244 250 219 163 184 198
344 344 341 341 339 338 337 336 334 333 333 331 329 326 327 332 291 332 289 15 320 323 276 248 201 219 217 225 226 227 195 201 205 213 217 220 228 210 226 230 237 242 244 258 199 186 224
344 342 340 338 338 337 335 334 333 332 331 328 326 323 324 320 298 292 340 325 320 276 277 141 168 187 191 205 192 214 189 207 220 205 211 219 223 218 214 229 232 243 252 240 256 192 239
342 340 337 336 334 334 333 332 331 330 329 326 322 319 323 304 231 258 277 322 285 232 238 176 136 182 191 197 221 184 210 203 221 238 220 231 219 233 226 218 234 237 242 242 242 247 236
344 341 340 338 335 333 331 330 328 328 326 323 320 313 307 281 263 349 309 282 224 235 228 213 163 189 196 194 207 227 199 193 213 214 228 219 236 220 234 231 223 230 231 235 234 226 242
343 342 340 338 337 335 331 329 328 327 324 320 320 309 271 248 239 254 277 245 238 241 236 330 173 188 209 192 204 218 189 209 206 218 218 218 214 228 201 231 225 222 226 232 227 226 233
342 340 338 338 335 332 331 330 330 328 326 320 315 309 285 265 208 236 242 222 222 240 286 236 233 199 197 204 197 210 225 206 208 217 222 213 227 206 231 217 232 223 223 237 249 244 249
338 338 337 337 335 332 330 329 331 331 329 321 317 299 265 246 167 216 236 235 230 272 289 326 288 238 226 202 206 195 216 206 217 209 230 239 222 220 211 214 226 238 222 230 234 246 248
340 341 339 337 335 331 328 327 328 330 330 316 282 290 263 165 217 229 239 242 250 265 283 289 295 282 268 230 214 204 214 214 210 218 212 236 244 226 210 198 218 210 232 234 233 236 257
342 340 338 336 336 333 330 331 330 330 333 311 298 273 164 234 246 236 241 244 265 269 272 271 265 282 292 300 299 245 213 215 209 207 215 217 236 248 230 203 206 225 221 234 229 228 247
340 336 335 336 333 337 334 334 333 334 342 326 299 286 282 279 253 251 251 250 245 253 254 263 268 269 275 282 297 276 283 219 213 209 210 207 223 237 244 240 194 213 228 228 237 232 224
335 335 333 334 334 332 335 334 331 332 334 312 287 289 266 220 239 265 285 283 247 234 250 261 281 265 273 270 265 277 295 288 216 218 9 220 215 225 238 229 201 199 222 232 234 234 237
329 330 330 330 329 326 325 328 331 328 331 297 287 295 341 296 329 319 303 263 306 296 274 286 255 260 265 272 264 258 267 279 258 232 267 239 233 227 227 251 240 202 209 220 237 235 235
330 328 326 323 321 317 314 314 317 323 329 272 295 320 328 296 297 286 282 291 281 282 294 275 235 258 263 251 264 297 336 277 277 300 231 238 246 253 236 233 247 258 227 212 224 235 246
328 326 325 323 321 321 319 311 305 310 324 302 328 305 300 306 299 284 339 330 262 257 254 304 306 319 294 5 343 325 308 298 298 294 295 240 227 238 234 232 248 247 244 230 213 225 237
325 324 322 320 319 317 315 317 311 291 269 287 293 317 296 289 291 320 321 309 307 341 328 316 350 321 303 326 324 300 272 263 268 274 275 280 216 235 233 226 235 254 240 249 256 239 217
323 321 319 319 318 316 313 301 296 280 263 275 284 272 286 285 292 287 359 297 306 294 271 273 272 268 294 298 310 288 253 263 242 248 259 272 236 223 235 228 249 249 247 235 236 245 255
319 319 319 320 319 322 320 317 311 288 269 261 270 170 264 295 274 344 318 297 309 327 326 293 274 246 268 282 276 267 244 230 223 227 237 256 264 245 214 229 224 218 223 136 336 240 237
316 318 321 326 330 330 325 329 326 316 287 246 267 185 239 269 272 276 281 330 318 314 294 308 333 324 235 250 252 253 249 259 239 215 210 228 241 228 225 228 246 249 248 261 244 259 251
315 315 318 326 330 332 328 325 327 322 276 251 263 272 193 259 279 287 294 289 270 268 282 353 297 16 290 241 241 248 247 251 254 254 219 218 220 230 231 241 240 250 268 268 358 354 319
311 310 312 314 329 336 327 320 329 328 323 253 266 240 194 231 281 312 293 284 284 277 266 271 266 293 331 341 20 317 276 249 242 241 250 237 221 225 238 235 292 311 328 320 305 286 353